Hourly Data Report for October 18, 2013

All times are specified in Local Standard Time (LST). Add 1 hour to adjust for Daylight Saving Time where and when it is observed.

KUGAARUK CLIMATE
NUNAVUT

68°32'15.060" N
89°47'47.020" W
15.80 m
2303094
71407
NBB

Download Data

Hourly Data (October 2013)
Hourly Data Report for October 18, 2013
Temp Definition
°C
Dew Point Temp Definition
°C
Rel Hum Definition
%
Wind Dir Definition
10's deg

Wind Spd Definition
km/h
Visibility Definition
km
Stn Press Definition
kPa
Hmdx Definition


Wind Chill Definition


Weather Definition


TIME
00:00 -0.8 -1.3 96 7 11   99.68   -5 LegendNANA
01:00 -0.7 -1.3 96 7 19   99.68   -6 LegendNANA
02:00 -1.2 -2.0 94 7 20   99.66   -7 LegendNANA
03:00 -1.2 -1.9 95 7 20   99.64   -7 LegendNANA
04:00 -1.7 -2.6 94 7 22   99.65   -8 LegendNANA
05:00 -2.1 -3.1 93 7 28   99.61   -9 LegendNANA
06:00 -1.7 -2.8 92 5 19   99.64   -7 LegendNANA
07:00 -1.4 -2.1 95 5 17   99.62   -7 LegendNANA
08:00 -1.3 -1.8 96 7 13   99.60   -6 LegendNANA
09:00 -1.4 -2.1 95 7 17   99.60   -7 LegendNANA
10:00 -1.2 -2.0 94 7 11   99.63   -5 LegendNANA
11:00 -1.2 -2.1 94 7 17   99.65   -6 LegendNANA
12:00 -1.3 -2.3 93 7 19   99.69   -7 LegendNANA
13:00 -1.2 -2.0 94 6 13   99.71   -5 LegendNANA
14:00 -1.4 -2.1 95 4 9   99.74   -5 LegendNANA
15:00 -1.4 -1.9 96 3 17   99.77   -7 LegendNANA
16:00 -1.9 -2.4 96 3 11   99.82   -6 LegendNANA
17:00 -2.5 -3.1 96 3 7   99.86   -5 LegendNANA
18:00 -3.7 -4.4 95 11 4   99.91   -5 LegendNANA
19:00 -3.7 -4.3 96 9 7   99.96   -7 LegendNANA
20:00 -4.1 -4.7 96 7 6   100.02   -7 LegendNANA
21:00 -3.9 -4.4 96 11 11   100.04   -8 LegendNANA
22:00 -4.6 -5.2 96 1 6   100.11   -7 LegendNANA
23:00 -3.6 -4.0 97 13 4   100.15   -5 LegendNANA

Notes on Data Quality.

Legend

  • E = Estimated
  • M = Missing
  • NA = Not Available
  • ‡ = Partner data that is not subject to review by the National Climate Archives
Date modified: